Tracking 28531 objects as of 26-Feb-2024
HD Live streaming from Space Station
objects crossing your sky now

STARLINK-2378

Track STARLINK-2378 now!
10-day predictions
STARLINK-2378 is classified as:


NORAD ID: 47916
Int'l Code: 2021-021BJ
Perigee: 553.3 km
Apogee: 555.5 km
Inclination: 53.1 °
Period: 95.6 minutes
Semi major axis: 6925 km
RCS: Unknown
Launch date: March 14, 2021
Source: United States (US)
Launch site: AIR FORCE EASTERN TEST RANGE (AFETR)
Your satellite tracking list
Your tracking list is empty




NASA's NSSDC Master Catalog

Two Line Element Set (TLE):
1 47916U 21021BJ  24057.12687146 -.00001666  00000-0 -93029-4 0  9994
2 47916  53.0579 355.1130 0001569 110.9899 249.1258 15.06388945163936
Source of the keplerian elements: AFSPC